Location: Unspecified
(52.1971°N, 0.0000°E)
Time: 10:38:52
(UTC+00:00)

YUBILEINY - Pass Details

Date: 16 December 2019
Orbit: 1478 x 1509 km, 82.5° (Epoch: 21 January)

Event Time Altitude Azimuth Distance (km) Brightness Sun altitude
Rises 06:28:56 0° 348° (NNW) 4,613 ? -13.3°
Reaches altitude 10° 06:32:03 10° 355° (N) 3,630 ? -12.9°
Maximum altitude 06:40:18 44° 66° (ENE) 1,967 ? -11.7°
Drops below altitude 10° 06:48:29 10° 136° (SE) 3,622 ? -10.6°
Sets 06:51:34 0° 143° (SE) 4,601 ? -10.1°
